This is the latest recevied weather packets stored in our database for station/object WC4PEM-12. If no packets are shown the sender has not sent any weather packets the latest 10 day(s).
| Time | Temp. | Humidity | Pressure | Rain* | Wind** | Luminosity | Snow |
|---|---|---|---|---|---|---|---|
| 1777392591 | 27.22° C | 69% | 1020.2 hPa | 0 mm | - | - | - |
| 1777392497 | 27.22° C | 69% | 1020.2 hPa | 0 mm | - | - | - |
| 1777392197 | 26.67° C | 69% | 1020.4 hPa | 0 mm | - | - | - |
| 1777391949 | 26.67° C | 68% | 1020.3 hPa | 0 mm | - | - | - |
| 1777391897 | 26.67° C | 68% | 1020.3 hPa | 0 mm | - | - | - |
| 1777391597 | 26.67° C | 70% | 1020.5 hPa | 0 mm | - | - | - |
| 1777391297 | 26.11° C | 72% | 1020.5 hPa | 0 mm | - | - | - |
| 1777391213 | 25.56° C | 75% | 1020.3 hPa | 0 mm | - | - | - |
| 1777390997 | 25.56° C | 75% | 1020.3 hPa | 0 mm | - | - | - |
| 1777390845 | 25.56° C | 75% | 1020.4 hPa | 0 mm | - | - | - |
| 1777390697 | 25.56° C | 75% | 1020.4 hPa | 0 mm | - | - | - |
| 1777390507 | 25° C | 76% | 1020.4 hPa | 0 mm | - | - | - |
| 1777390397 | 25° C | 76% | 1020.4 hPa | 0 mm | - | - | - |
| 1777390216 | 25° C | 77% | 1020.4 hPa | 0 mm | - | - | - |
| 1777390097 | 25° C | 77% | 1020.4 hPa | 0 mm | - | - | - |
| 1777389935 | 25° C | 76% | 1020.4 hPa | 0 mm | - | - | - |
| 1777389797 | 25° C | 76% | 1020.4 hPa | 0 mm | - | - | - |
| 1777389497 | 25.56° C | 77% | 1020.5 hPa | 0 mm | - | - | - |
| 1777389197 | 25.56° C | 77% | 1020.4 hPa | 0 mm | - | - | - |
| 1777388897 | 25.56° C | 78% | 1020.2 hPa | 0 mm | - | - | - |
| 1777388783 | 25° C | 81% | 1020.3 hPa | 0 mm | - | - | - |
| 1777388597 | 25° C | 81% | 1020.3 hPa | 0 mm | - | - | - |
| 1777388442 | 24.44° C | 80% | 1020.1 hPa | 0 mm | - | - | - |
| 1777388297 | 24.44° C | 80% | 1020.1 hPa | 0 mm | - | - | - |
| 1777388134 | 24.44° C | 82% | 1020.1 hPa | 0 mm | - | - | - |
* Rain latest hour (hover to see other rain measurements)
** Current wind speed in m/s (hover to see current wind gust speed)